Weather History for Coeur d'Alene, ID

Change the Weather History Date:

Friday, February 28, 2014

  Actual Average Record
Temperature  
Mean Temperature 27 °F -  
Max Temperature 35 °F 38 °F 51 °F (1999)
Min Temperature 19 °F 25 °F 6 °F (2012)
Degree Days  
Heating Degree Days 38    
Moisture  
Dew Point 23 °F    
Average Humidity 78    
Maximum Humidity 93    
Minimum Humidity 36    
Precipitation  
Precipitation 0.00 in - - ()
Sea Level Pressure  
Sea Level Pressure 29.72 in    
Wind  
Wind Speed 8 mph (NNE)    
Max Wind Speed 30 mph    
Max Gust Speed 38 mph    
Visibility 8 miles    
Events      
Averages and records for this station are not official NWS values.
T = Trace of Precipitation, MM = Missing Value Source: NWS Daily Summary

Daily Weather History Graph

Daily Weather History Graph

Search for Another Location

Airport:

Trip Planner

Search our weather history database for the weather conditions in past years. The results will help you decide how hot, cold, wet, or windy it might be!

Date:

Astronomy

Feb. 28, 2014 Rise Set
Actual Time 6:29 AM PST 5:30 PM PST
Civil Twilight 5:58 AM PST 6:01 PM PST
Nautical Twilight 5:22 AM PST 6:37 PM PST
Astronomical Twilight 4:47 AM PST 7:13 PM PST
Moon 5:47 AM PST (2/28) 5:14 PM PST (2/28)
Length of Visible Light 12h 03m
Length of Day
11h 00m
Waning Crescent, 0% of the Moon is Illuminated
Feb 28
Waning Crescent
Mar 1
New
Mar 8
First Quarter
Mar 16
Full
Mar 23
Last Quarter

Hourly Weather History & Observations

Time (PST) Temp. Windchill Dew Point Humidity Pressure Visibility Wind Dir Wind Speed Gust Speed Precip Events Conditions
12:15 AM 30.2 °F - 28.4 °F 93% 29.73 in 5.0 mi Calm Calm - N/A   Overcast
12:35 AM 30.2 °F - 28.4 °F 93% 29.73 in 5.0 mi Calm Calm - N/A   Overcast
12:55 AM 30.2 °F - 28.4 °F 93% 29.73 in 5.0 mi Calm Calm - N/A   Overcast
1:15 AM 30.2 °F - 28.4 °F 93% 29.72 in 7.0 mi Calm Calm - N/A   Overcast
1:35 AM 30.2 °F - 28.4 °F 93% 29.72 in 10.0 mi Calm Calm - N/A   Overcast
1:55 AM 30.2 °F - 28.4 °F 93% 29.72 in 9.0 mi Calm Calm - N/A   Overcast
2:15 AM 30.2 °F - 28.4 °F 93% 29.72 in 6.0 mi Calm Calm - N/A   Overcast
2:35 AM 30.2 °F - 28.4 °F 93% 29.72 in 6.0 mi Calm Calm - N/A   Overcast
2:55 AM 30.2 °F - 28.4 °F 93% 29.72 in 6.0 mi Calm Calm - N/A   Overcast
3:15 AM 30.2 °F - 28.4 °F 93% 29.72 in 5.0 mi Calm Calm - N/A   Overcast
3:35 AM 30.2 °F - 28.4 °F 93% 29.72 in 5.0 mi Calm Calm - N/A   Overcast
3:55 AM 30.2 °F - 28.4 °F 93% 29.72 in 7.0 mi Calm Calm - N/A   Overcast
4:15 AM 30.2 °F - 28.4 °F 93% 29.72 in 5.0 mi Calm Calm - N/A   Overcast
4:35 AM 30.2 °F - 28.4 °F 93% 29.72 in 5.0 mi Calm Calm - N/A   Overcast
4:55 AM 30.2 °F - 28.4 °F 93% 29.72 in 4.0 mi Calm Calm - N/A   Overcast
5:15 AM 30.2 °F - 28.4 °F 93% 29.72 in 4.0 mi Calm Calm - N/A   Overcast
5:35 AM 30.2 °F 26.7 °F 28.4 °F 93% 29.72 in 4.0 mi NE 3.5 mph - N/A   Overcast
5:55 AM 30.2 °F 26.7 °F 28.4 °F 93% 29.71 in 4.0 mi ENE 3.5 mph - N/A   Overcast
6:15 AM 30.2 °F - 28.4 °F 93% 29.70 in 5.0 mi Calm Calm - N/A   Overcast
6:35 AM 30.2 °F 26.7 °F 28.4 °F 93% 29.70 in 3.0 mi ENE 3.5 mph - N/A   Overcast
6:55 AM 30.2 °F 26.7 °F 28.4 °F 93% 29.70 in 4.0 mi NE 3.5 mph - N/A   Overcast
7:15 AM 30.2 °F - 28.4 °F 93% 29.70 in 4.0 mi Calm Calm - N/A   Overcast
7:35 AM 30.2 °F 25.4 °F 28.4 °F 93% 29.70 in 4.0 mi NE 4.6 mph - N/A   Overcast
7:55 AM 30.2 °F 23.4 °F 28.4 °F 93% 29.70 in 5.0 mi NE 6.9 mph - N/A   Overcast
8:15 AM 32.0 °F 25.6 °F 28.4 °F 87% 29.70 in 5.0 mi NE 6.9 mph - N/A   Overcast
8:35 AM 32.0 °F 24.2 °F 28.4 °F 87% 29.70 in 8.0 mi NNE 9.2 mph - N/A   Overcast
8:55 AM 32.0 °F 23.0 °F 28.4 °F 87% 29.70 in 10.0 mi NNE 11.5 mph - N/A   Overcast
9:15 AM 33.8 °F 24.8 °F 28.4 °F 81% 29.70 in 9.0 mi NNE 12.7 mph - N/A   Overcast
9:35 AM 33.8 °F 25.3 °F 28.4 °F 81% 29.70 in 10.0 mi NNE 11.5 mph - N/A   Overcast
9:55 AM 33.8 °F 25.3 °F 28.4 °F 81% 29.70 in 10.0 mi NNE 11.5 mph - N/A   Overcast
10:15 AM 33.8 °F 26.4 °F 28.4 °F 81% 29.70 in 10.0 mi NNE 9.2 mph - N/A   Overcast
10:35 AM 33.8 °F 26.4 °F 28.4 °F 81% 29.70 in 10.0 mi NNE 9.2 mph - N/A   Overcast
10:55 AM 33.8 °F 25.3 °F 30.2 °F 87% 29.70 in 10.0 mi NNE 11.5 mph - N/A   Overcast
11:15 AM 33.8 °F 24.8 °F 30.2 °F 87% 29.71 in 10.0 mi NNE 12.7 mph - N/A   Overcast
11:35 AM 33.8 °F 23.2 °F 30.2 °F 87% 29.71 in 10.0 mi NNE 17.3 mph - N/A   Overcast
11:55 AM 35.6 °F 25.5 °F 30.2 °F 81% 29.70 in 10.0 mi NNE 17.3 mph - N/A   Overcast
12:15 PM 33.8 °F 23.2 °F 28.4 °F 81% 29.70 in 10.0 mi NNE 17.3 mph 23.0 mph N/A   Overcast
12:35 PM 33.8 °F 22.8 °F 26.6 °F 75% 29.70 in 10.0 mi NNE 18.4 mph - N/A   Overcast
12:55 PM 33.8 °F 22.2 °F 26.6 °F 75% 29.70 in 10.0 mi NNE 20.7 mph - N/A   Overcast
1:15 PM 33.8 °F 21.6 °F 24.8 °F 70% 29.70 in 10.0 mi NNE 23.0 mph 26.5 mph N/A   Overcast
1:35 PM - - - N/A% 29.69 in 10.0 mi NNE 25.3 mph - N/A   Overcast
1:55 PM 32.0 °F 19.2 °F 23.0 °F 69% 29.70 in 10.0 mi NNE 23.0 mph - N/A   Overcast
2:15 PM 32.0 °F 19.2 °F 23.0 °F 69% 29.70 in 10.0 mi NNE 23.0 mph 29.9 mph N/A   Overcast
2:35 PM 30.2 °F 17.1 °F 21.2 °F 69% 29.70 in 10.0 mi NNE 21.9 mph 31.1 mph N/A   Overcast
2:55 PM 30.2 °F 17.4 °F 21.2 °F 69% 29.70 in 10.0 mi NNE 20.7 mph 28.8 mph N/A   Overcast
3:15 PM 30.2 °F 17.1 °F 21.2 °F 69% 29.70 in 10.0 mi NNE 21.9 mph - N/A   Overcast
3:35 PM 30.2 °F 17.4 °F 21.2 °F 69% 29.70 in 10.0 mi NNE 20.7 mph 25.3 mph N/A   Overcast
3:55 PM 30.2 °F 18.1 °F 21.2 °F 69% 29.70 in 10.0 mi NNE 18.4 mph - N/A   Overcast
4:15 PM 30.2 °F 18.5 °F 21.2 °F 69% 29.70 in 10.0 mi NNE 17.3 mph 23.0 mph N/A   Overcast
4:35 PM 30.2 °F 17.1 °F 19.4 °F 64% 29.70 in 10.0 mi NNE 21.9 mph - N/A   Overcast
4:55 PM 30.2 °F 17.8 °F 19.4 °F 64% 29.70 in 10.0 mi NNE 19.6 mph 27.6 mph N/A   Overcast
5:15 PM 30.2 °F 17.1 °F 19.4 °F 64% 29.70 in 10.0 mi NNE 21.9 mph 31.1 mph N/A   Overcast
5:35 PM - - - N/A% 29.70 in 10.0 mi NNE 24.2 mph 31.1 mph N/A   Overcast
5:55 PM 28.4 °F 15.1 °F 17.6 °F 64% 29.71 in 10.0 mi NNE 20.7 mph 29.9 mph N/A   Mostly Cloudy
6:15 PM 28.4 °F 14.4 °F 15.8 °F 59% 29.72 in 10.0 mi NNE 23.0 mph 28.8 mph N/A   Overcast
6:35 PM 26.6 °F 12.4 °F 15.8 °F 64% 29.72 in 10.0 mi NNE 21.9 mph 28.8 mph N/A   Overcast
6:55 PM 26.6 °F 12.7 °F 15.8 °F 64% 29.72 in 10.0 mi NNE 20.7 mph 27.6 mph N/A   Overcast
7:15 PM 26.6 °F 12.0 °F 15.8 °F 64% 29.73 in 10.0 mi NE 23.0 mph - N/A   Overcast
7:35 PM 26.6 °F 12.0 °F 14.0 °F 59% 29.74 in 10.0 mi NE 23.0 mph 28.8 mph N/A   Overcast
7:55 PM 24.8 °F 10.0 °F 15.8 °F 69% 29.74 in 10.0 mi NE 21.9 mph 27.6 mph N/A   Overcast
8:15 PM 24.8 °F 10.0 °F 14.0 °F 64% 29.74 in 10.0 mi NE 21.9 mph 28.8 mph N/A   Overcast
8:35 PM 24.8 °F 10.7 °F 12.2 °F 59% 29.75 in 10.0 mi NE 19.6 mph - N/A   Overcast
8:55 PM 24.8 °F 10.0 °F 12.2 °F 59% 29.75 in 10.0 mi NE 21.9 mph 27.6 mph N/A   Overcast
9:15 PM 23.0 °F 7.2 °F 10.4 °F 59% 29.76 in 10.0 mi NE 23.0 mph - N/A   Overcast
9:35 PM 21.2 °F 4.5 °F -2.2 °F 36% 29.76 in 10.0 mi NNE 24.2 mph 28.8 mph N/A   Overcast
9:55 PM 21.2 °F 4.9 °F - N/A% 29.77 in 10.0 mi NE 23.0 mph 31.1 mph N/A   Overcast
10:15 PM 21.2 °F 4.5 °F 1.4 °F 42% 29.79 in 10.0 mi NE 24.2 mph 29.9 mph N/A   Overcast
10:35 PM 21.2 °F 4.9 °F 12.2 °F 68% 29.80 in 10.0 mi NE 23.0 mph - N/A   Overcast
10:55 PM 19.4 °F 1.8 °F 6.8 °F 58% 29.79 in 10.0 mi NE 25.3 mph 33.4 mph N/A   Overcast
11:15 PM 19.4 °F 1.1 °F 8.6 °F 63% 29.80 in 10.0 mi NE 27.6 mph 32.2 mph N/A   Overcast
11:35 PM 19.4 °F 0.5 °F 6.8 °F 58% 29.80 in 10.0 mi NE 29.9 mph 34.5 mph N/A   Overcast
11:55 PM - - - N/A% 29.80 in 10.0 mi NE 28.8 mph 38.0 mph N/A   Overcast